Simultaneous Nadir Overpasses (SNOs) Predictions

Prediction of SNOs between GOES-14 and NPP Satellite Orbit:

Table of predicted SNOs for the next 14.0 days since TLE Epoch: 7/6/2024
Index Date Time (GOES-14) GOES-14 Lat,Lon NPP Lat,Lon Distance(km) Time Diff (sec)
1 07/06/2024 20:23:50 0.16,-108.49 1.06,-104.56 448.01 80
2 07/08/2024 08:43:00 -0.20,-108.51 0.10,-109.84 152.24 80
3 07/09/2024 08:26:57 -0.18,-108.50 -0.90,-105.32 363.50 80
4 07/10/2024 20:46:15 0.22,-108.47 -0.29,-110.63 246.43 80
5 07/11/2024 20:30:12 0.20,-108.47 0.72,-106.10 269.92 80
6 07/13/2024 08:49:22 -0.24,-108.51 0.43,-111.39 328.99 80
7 07/14/2024 08:33:18 -0.22,-108.50 -0.58,-106.86 186.83 80
8 07/15/2024 20:52:38 0.26,-108.46 -0.54,-112.19 424.24 80
9 07/16/2024 20:36:33 0.25,-108.46 0.41,-107.65 91.74 80
10 07/19/2024 08:39:40 -0.27,-108.48 -0.29,-108.41 8.24 80
